This is the latest recevied weather packets stored in our database for station/object KN6ZYR. If no packets are shown the sender has not sent any weather packets the latest 10 day(s).
| Time | Temp. | Humidity | Pressure | Rain* | Wind** | Luminosity | Snow |
|---|---|---|---|---|---|---|---|
| 1777775621 | 20.56° C | 28% | 1017.4 hPa | 0 mm | - | 5 W/m² | - |
| 1777775318 | 20.56° C | 27% | 1017.3 hPa | 0 mm | - | 8 W/m² | - |
| 1777775018 | 21.11° C | 27% | 1017.4 hPa | 0 mm | - | 10 W/m² | - |
| 1777774714 | 21.11° C | 27% | 1017.1 hPa | 0 mm | - | 12 W/m² | - |
| 1777774411 | 21.11° C | 26% | 1017.3 hPa | 0 mm | - | 15 W/m² | - |
| 1777774108 | 21.11° C | 26% | 1017.3 hPa | 0 mm | - | 19 W/m² | - |
| 1777773806 | 21.67° C | 25% | 1017.2 hPa | 0 mm | - | 21 W/m² | - |
| 1777773502 | 22.22° C | 24% | 1017.1 hPa | 0 mm | - | 24 W/m² | - |
| 1777773199 | 22.78° C | 22% | 1017.2 hPa | 0 mm | - | 32 W/m² | - |
| 1777772895 | 23.33° C | 20% | 1016.8 hPa | 0 mm | - | 41 W/m² | - |
| 1777772593 | 23.33° C | 18% | 1016.7 hPa | 0 mm | - | 49 W/m² | - |
| 1777772290 | 23.33° C | 18% | 1016.8 hPa | 0 mm | - | 55 W/m² | - |
| 1777771988 | 23.33° C | 18% | 1016.6 hPa | 0 mm | - | 60 W/m² | - |
| 1777771684 | 23.33° C | 21% | 1016.8 hPa | 0 mm | - | 70 W/m² | - |
| 1777771382 | 23.33° C | 20% | 1016.8 hPa | 0 mm | - | 75 W/m² | - |
| 1777771079 | 23.89° C | 20% | 1016.6 hPa | 0 mm | - | 86 W/m² | - |
| 1777770775 | 23.89° C | 20% | 1016.6 hPa | 0 mm | - | 95 W/m² | - |
| 1777770471 | 24.44° C | 18% | 1016.5 hPa | 0 mm | - | 103 W/m² | - |
| 1777770169 | 23.89° C | 17% | 1016.6 hPa | 0 mm | - | 112 W/m² | - |
| 1777769866 | 24.44° C | 17% | 1016.5 hPa | 0 mm | - | 110 W/m² | - |
| 1777769563 | 24.44° C | 17% | 1016.5 hPa | 0 mm | - | 118 W/m² | - |
| 1777769259 | 24.44° C | 16% | 1016.6 hPa | 0 mm | - | 123 W/m² | - |
| 1777768957 | 25° C | 16% | 1016.5 hPa | 0 mm | - | 128 W/m² | - |
| 1777768654 | 24.44° C | 16% | 1016.5 hPa | 0 mm | - | 135 W/m² | - |
| 1777768351 | 25° C | 17% | 1016.5 hPa | 0 mm | - | 122 W/m² | - |
* Rain latest hour (hover to see other rain measurements)
** Current wind speed in m/s (hover to see current wind gust speed)